Flag for Germany Weather past 2 weeks in Westerstede, Lower Saxony, Germany

Now
52 °F

Passing clouds.


Feels Like: 50 °F
Forecast: 47 / 71 °F
Wind: 6 mph from West

Location: Wittmundhaven

Current Time: Jul 31, 2015 at 5:25:23 AM

Latest Report: Jul 31, 2015 at 4:20 AM


Visibility: N/A

Pressure: 30.04 "Hg

Humidity: 82%

Dew point: 46 °F

Location of WesterstedeLocation

Historic Weather in Westerstede — Graph

°F

Westerstede temperature yesterday

Maximum temperature yesterday: 59 °F (at 12:20 PM)
Minimum temperature yesterday: 54 °F (at 9:20 AM)
Average temperature yesterday: 57 °F

Past Weeks' High & Low Weather Summary

 TemperatureHumidityPressure
High81 °F (Jul 17, 2:20 PM)100% (Jul 16, 3:20 AM)30.12 "Hg (Jul 16, 3:20 AM)
Low48 °F (Jul 24, 4:20 AM)50% (Jul 20, 3:20 PM)29.39 "Hg (Jul 25, 2:20 PM)
Average61 °F79%29.80 "Hg
* Reported Jul 16 3:20 AM — Jul 31 3:20 AM, Westerstede, Weather by CustomWeather, © 2015

Note: Actual official high and low records may vary slightly from our data, if they occured in-between our weather recording intervals... More about our weather records

Advertising

Westerstede weather history for previous 24 hours

 ConditionsComfort  
Time TempWeatherWind HumidityBarometerVisibility
3:20 AM
Fri, Jul 31
54 °FPassing clouds.7 mph77%30.04 "HgN/A
2:20 AM54 °FPassing clouds.6 mph82%30.01 "HgN/A
1:20 AM54 °FPassing clouds.6 mph82%30.01 "HgN/A
12:20 AM55 °FPassing clouds.6 mph72%30.01 "HgN/A
11:20 PM
Thu, Jul 30
55 °FPassing clouds.8 mph77%30.01 "HgN/A
10:20 PM55 °FPartly sunny.9 mph72%30.01 "HgN/A
9:20 PM57 °FPartly sunny.12 mph72%29.98 "HgN/A
8:20 PM57 °FPartly sunny.14 mph72%29.98 "HgN/A
7:20 PM59 °FBroken clouds.18 mph68%29.95 "HgN/A
6:20 PM57 °FBroken clouds.16 mph77%29.95 "HgN/A
5:20 PM59 °FBroken clouds.18 mph72%29.92 "HgN/A
4:20 PM59 °FPartly sunny.22 mph68%29.92 "HgN/A
3:20 PM57 °FPartly sunny.18 mph72%29.92 "HgN/A
2:20 PM59 °FBroken clouds.21 mph72%29.89 "HgN/A
1:20 PM57 °FScattered showers. Partly sunny.24 mph72%29.86 "HgN/A
12:20 PM59 °FBroken clouds.18 mph72%29.86 "HgN/A
11:20 AM55 °FSprinkles. Fog.16 mph88%29.83 "Hg2 mi
10:20 AM55 °FPartly sunny.21 mph82%29.83 "HgN/A
9:20 AM54 °FPartly sunny.17 mph88%29.80 "HgN/A
8:20 AM57 °FPartly sunny.20 mph77%29.77 "HgN/A
7:20 AM55 °FPartly sunny.16 mph77%29.77 "HgN/A
6:20 AM55 °FPassing clouds.14 mph77%29.74 "HgN/A
5:20 AM55 °FPassing clouds.14 mph82%29.74 "HgN/A
Weather by CustomWeather, © 2015

See weather overviewHow to use our weather pages